YD2CLX-15 Weather Reports


time (UTC)temp
C
wind
direction
speed
KPH
gust
KPH
rain 1hr
cm
rain 24hr
cm
rain mn
cm
humidity
%
barometer
mb
20260505223101 12 66 1.6 3.2 0.00 0.00 0.00 96 1011.0
20260505221558 13 66 1.6 3.2 0.00 0.00 0.00 96 1011.0
20260505214600 16 66 1.6 3.2 0.00 0.00 0.00 96 1011.0
20260505213106 17 66 1.6 3.2 0.00 0.00 0.00 96 1011.0
20260505211601 18 66 1.6 3.2 0.00 0.00 0.00 96 1011.0
20260505204605 13 70 1.6 3.2 0.00 0.00 0.00 96 1011.0
20260505203101 14 70 1.6 3.2 0.00 0.00 0.00 96 1011.0
20260505201602 15 70 1.6 3.2 0.00 0.00 0.00 96 1010.0
20260505200110 16 70 1.6 3.2 0.00 0.00 0.00 96 1011.0
20260505194600 17 70 1.6 3.2 0.00 0.00 0.00 96 1011.0
20260505193111 18 70 1.6 3.2 0.00 0.00 0.00 96 1011.0
20260505191601 12 34 4.8 4.8 0.00 0.00 0.00 95 1011.0
20260505190104 13 34 4.8 4.8 0.00 0.00 0.00 95 1011.0
20260505184601 14 34 4.8 4.8 0.00 0.00 0.00 95 1011.0
20260505183102 15 34 4.8 4.8 0.00 0.00 0.00 95 1011.0
20260505181606 16 34 4.8 4.8 0.00 0.00 0.00 95 1011.0
20260505180103 17 34 4.8 4.8 0.00 0.00 0.00 95 1011.0
20260505174606 18 34 4.8 4.8 0.00 0.00 0.00 95 1011.0
20260505173104 12 35 1.6 3.2 0.00 0.00 0.00 96 1011.0
20260505171603 13 35 1.6 3.2 0.00 0.00 0.00 96 1012.0
20260505170108 15 35 1.6 3.2 0.00 0.00 0.00 96 1012.0
20260505164606 16 35 1.6 3.2 0.00 0.00 0.00 96 1012.0
20260505164601 16 35 1.6 3.2 0.00 0.00 0.00 96 1012.0
20260505163103 17 35 1.6 3.2 0.00 0.00 0.00 96 1012.0
20260505161601 18 35 1.6 3.2 0.00 0.00 0.00 96 1012.0
20260505160117 19 35 1.6 3.2 0.00 0.00 0.00 96 1012.0
20260505153104 13 52 3.2 3.2 0.00 0.00 0.00 95 1012.0
20260505151604 15 52 3.2 3.2 0.00 0.00 0.00 95 1012.0
20260505150111 16 52 3.2 3.2 0.00 0.00 0.00 95 1013.0
20260505140108 20 52 3.2 3.2 0.00 0.00 0.00 95 1013.0
20260505130104 14 64 4.8 4.8 0.00 0.00 0.00 94 1012.0
20260505124604 15 64 4.8 4.8 0.00 0.00 0.00 94 1012.0
20260505123106 16 64 4.8 4.8 0.00 0.00 0.00 94 1012.0
20260505121601 17 64 4.8 4.8 0.00 0.00 0.00 94 1011.0
20260505120103 18 64 4.8 4.8 0.00 0.00 0.00 94 1011.0
20260505114600 20 64 4.8 4.8 0.00 0.00 0.00 94 1011.0
20260505113106 13 115 1.6 1.6 0.00 0.00 0.00 92 1011.0
20260505111559 15 115 1.6 1.6 0.00 0.00 0.00 92 1010.0
20260505110107 16 115 1.6 1.6 0.00 0.00 0.00 92 1010.0
20260505101558 19 115 1.6 1.6 0.00 0.00 0.00 92 1010.0
20260505094557 15 172 1.6 1.6 0.00 0.00 0.00 89 1010.0
20260505093058 16 172 1.6 1.6 0.00 0.00 0.00 89 1010.0
20260505091557 17 172 1.6 1.6 0.00 0.00 0.00 89 1010.0
20260505090059 18 172 1.6 1.6 0.00 0.00 0.00 89 1010.0
20260505084556 20 172 1.6 1.6 0.00 0.00 0.00 89 1010.0
20260505083101 21 172 1.6 1.6 0.10 0.00 0.00 89 1010.0
20260505081600 21 194 3.2 4.8 0.00 0.00 0.00 89 1010.0
20260505074600 21 194 3.2 4.8 0.00 0.00 0.00 88 1010.0
20260505073101 21 194 3.2 4.8 0.10 0.00 0.00 88 1010.0
20260505071601 21 188 3.2 6.4 0.00 0.00 0.00 88 1010.0
20260505064601 21 188 3.2 6.4 0.00 0.00 0.00 87 1010.0
20260505063103 21 188 3.2 6.4 0.13 0.00 0.00 87 1010.0
20260505061601 21 165 3.2 4.8 0.00 0.00 0.00 86 1010.0
20260505060105 21 165 3.2 4.8 0.00 0.00 0.00 86 1010.0
20260505054602 21 165 3.2 4.8 0.00 0.00 0.00 86 1010.0
20260505053104 21 164 4.8 4.8 0.15 0.00 0.00 85 1010.0
20260505051602 22 170 4.8 4.8 0.00 0.00 0.00 86 1011.0
20260505050107 22 170 4.8 4.8 0.00 0.00 0.00 84 1011.0
20260505041603 22 173 4.8 4.8 0.05 0.00 0.00 87 1011.0
20260505040109 22 173 4.8 4.8 0.00 0.00 0.00 81 1011.0
20260505034604 22 173 4.8 4.8 0.00 0.00 0.00 82 1011.0
20260505033110 22 173 4.8 4.8 0.05 0.00 0.00 80 1011.0
20260505031605 22 160 4.8 4.8 0.00 0.00 0.00 87 1012.0
20260505030113 22 160 4.8 4.8 0.00 0.00 0.00 82 1012.0
20260505024603 22 160 4.8 4.8 0.00 0.00 0.00 82 1012.0
20260505023110 21 160 4.8 4.8 0.03 0.00 0.00 82 1012.0
20260505021605 21 143 3.2 4.8 0.00 0.00 0.00 88 1012.0
20260505020120 21 143 3.2 4.8 0.00 0.00 0.00 88 1012.0
20260505014609 21 143 3.2 4.8 0.00 0.00 0.00 85 1012.0
20260505013116 21 143 3.2 4.8 0.00 0.00 0.00 85 1012.0
20260505011606 20 116 3.2 3.2 0.00 0.00 0.00 91 1012.0
20260505010117 20 116 3.2 3.2 0.00 0.00 0.00 88 1012.0
20260505004607 20 116 3.2 3.2 0.00 0.00 0.00 89 1012.0
20260505003117 20 116 3.2 3.2 0.00 0.00 0.00 87 1012.0
20260505001605 19 62 1.6 3.2 0.00 0.00 0.00 91 1012.0
20260505000116 19 62 1.6 3.2 0.00 0.00 0.00 91 1012.0
20260504234606 19 56 3.2 3.2 0.00 0.00 0.00 91 1011.0
20260504233115 19 56 3.2 3.2 0.00 0.00 0.00 92 1011.0
20260504231608 18 27 4.8 4.8 0.00 0.00 0.00 94 1011.0
20260504230123 18 27 4.8 4.8 0.00 0.00 0.00 94 1011.0
20260504224604 18 27 4.8 4.8 0.00 0.00 0.00 93 1011.0